This is the latest recevied weather packets stored in our database for station/object W4KAB. If no packets are shown the sender has not sent any weather packets the latest 10 day(s).
| Time | Temp. | Humidity | Pressure | Rain* | Wind** | Luminosity | Snow |
|---|---|---|---|---|---|---|---|
| 1778180957 | 17.78° C | 84% | 1010.5 hPa | 0 mm | - | 166 W/m² | - |
| 1778180655 | 17.78° C | 85% | 1010.6 hPa | 0 mm | - | 191 W/m² | - |
| 1778180354 | 17.78° C | 85% | 1010.5 hPa | 0 mm | - | 78 W/m² | - |
| 1778180050 | 17.78° C | 84% | 1010.8 hPa | 0 mm | - | 194 W/m² | - |
| 1778179748 | 18.33° C | 86% | 1010.6 hPa | 0 mm | - | 53 W/m² | - |
| 1778179445 | 18.89° C | 84% | 1010.5 hPa | 0 mm | - | 54 W/m² | - |
| 1778179142 | 20° C | 81% | 1010.2 hPa | 0 mm | - | 90 W/m² | - |
| 1778178839 | 20° C | 82% | 1010.5 hPa | 0 mm | - | 655 W/m² | - |
| 1778178537 | 19.44° C | 81% | 1010.2 hPa | 0 mm | - | 657 W/m² | - |
| 1778178232 | 20° C | 81% | 1010.7 hPa | 0 mm | - | 130 W/m² | - |
| 1778177929 | 19.44° C | 82% | 1010.4 hPa | 0 mm | - | 586 W/m² | - |
| 1778177624 | 18.89° C | 86% | 1010.6 hPa | 0 mm | - | 835 W/m² | - |
| 1778177322 | 18.89° C | 86% | 1010.5 hPa | 0 mm | - | 28 W/m² | - |
| 1778177019 | 18.89° C | 85% | 1010.2 hPa | 0 mm | - | 55 W/m² | - |
| 1778176714 | 18.89° C | 87% | 1010 hPa | 0 mm | - | 83 W/m² | - |
| 1778176411 | 19.44° C | 88% | 1010 hPa | 0 mm | - | 70 W/m² | - |
| 1778176109 | 19.44° C | 87% | 1010 hPa | 0 mm | - | 23 W/m² | - |
| 1778175806 | 20° C | 88% | 1009.8 hPa | 0 mm | - | 18 W/m² | - |
| 1778175503 | 21.11° C | 86% | 1009.7 hPa | 0 mm | - | 18 W/m² | - |
| 1778175201 | 21.67° C | 83% | 1010 hPa | 0 mm | - | 53 W/m² | - |
| 1778174897 | 21.67° C | 82% | 1009.9 hPa | 0 mm | - | 77 W/m² | - |
| 1778174594 | 22.22° C | 82% | 1009.9 hPa | 0 mm | - | 62 W/m² | - |
| 1778174289 | 22.78° C | 81% | 1009.9 hPa | 0 mm | - | 60 W/m² | - |
| 1778173987 | 23.33° C | 76% | 1010 hPa | 0 mm | - | 86 W/m² | - |
| 1778173683 | 23.89° C | 75% | 1010.1 hPa | 0 mm | - | 138 W/m² | - |
* Rain latest hour (hover to see other rain measurements)
** Current wind speed in m/s (hover to see current wind gust speed)